Vorticity
5 6 5 6 6 6 7 9 10 8 1 2 7 6 6 6 7 7 7 7 8 8 8 8 6 6 5 6 6 5 6 8 6 8 15 15 19 19
5 6 5 6 6 6 7 9 10 6 3 -1 5 6 6 7 8 8 7 8 8 8 8 7 6 5 6 6 6 7 8 7 10 16 15 20 18 18
5 6 5 7 6 6 8 9 10 6 2 -1 3 6 7 7 8 7 8 8 8 8 7 6 6 6 6 6 8 7 8 13 17 18 19 17 14 14
5 5 5 6 7 6 8 9 10 7 4 1 1 4 8 8 9 7 7 8 7 7 6 6 5 5 8 6 8 10 12 16 19 19 16 16 14 14
5 5 6 6 6 6 7 9 10 7 5 3 2 5 7 8 7 6 8 9 7 7 6 4 5 7 4 8 9 13 22 18 18 18 17 16 16 15
6 5 6 6 5 6 7 9 10 7 4 2 4 4 8 8 7 7 9 8 7 6 3 9 7 6 6 6 8 14 20 20 16 14 13 14 17 17
6 5 6 6 5 5 9 8 10 6 5 3 4 6 8 8 7 7 10 8 4 2 7 8 4 6 6 6 9 13 18 21 16 12 12 20 17 16
6 6 5 5 5 5 18 12 9 6 5 4 5 6 8 8 7 7 8 5 6 4 7 4 5 6 7 7 12 19 25 22 14 9 16 13 13 11
5 5 5 9 -5 8 20 13 8 6 5 4 5 8 7 8 8 6 6 6 6 6 9 6 7 6 7 9 16 22 26 20 11 13 17 12 11 11
5 6 6 1 8 8 13 13 7 5 4 5 7 8 8 7 6 6 7 7 5 6 11 8 7 6 9 11 17 22 23 16 11 15 11 10 11 12
6 4 -1 10 6 5 12 16 7 5 5 6 7 7 8 7 7 7 6 6 6 6 12 5 9 10 8 13 16 25 18 12 15 12 10 15 20 25
5 6 18 1 6 5 12 12 8 6 6 7 8 8 7 6 7 7 7 7 7 7 8 8 11 17 7 19 21 21 15 13 13 8 19 28 22 18
10 2 -1 7 2 4 5 7 9 6 7 7 8 7 6 7 7 6 7 8 7 7 14 13 16 14 12 10 17 16 11 14 6 12 26 20 17 18
4 5 -6 6 8 6 10 7 8 8 9 9 8 6 6 6 6 7 7 6 6 10 17 15 12 19 16 12 11 12 15 8 10 20 24 19 19 17
4 4 -3 9 5 7 9 7 8 10 9 8 6 6 6 6 7 7 7 8 7 8 15 17 18 16 12 10 10 13 9 13 16 29 22 23 22 10
6 9 8 8 3 9 8 11 10 8 8 6 6 7 6 7 7 8 8 9 8 8 13 17 16 10 12 9 11 8 12 13 25 18 16 15 16 20
12 14 8 8 9 10 9 9 10 8 6 6 7 6 7 7 7 8 9 9 11 14 14 18 11 8 11 13 8 8 16 25 19 19 23 19 19 22
13 8 8 7 10 9 11 10 8 6 6 7 7 7 7 8 8 9 9 10 12 13 19 16 11 12 15 20 0 12 28 22 16 24 19 15 25 28
7 8 8 11 11 10 10 10 6 6 8 8 8 7 8 8 9 9 10 11 10 14 16 10 12 14 11 7 5 24 18 17 18 19 14 23 37 31
9 10 9 10 9 8 8 7 9 8 8 8 8 8 8 9 10 10 11 10 13 15 12 10 16 10 8 6 18 28 22 19 21 23 25 35 38 50
11 10 10 9 8 8 9 9 8 9 8 8 7 8 11 9 9 10 9 11 11 13 10 12 16 10 4 12 21 24 29 25 30 26 37 66 31 8
10 9 9 7 9 9 8 9 9 7 7 7 9 11 9 10 10 9 11 11 11 12 10 13 12 12 5 14 24 23 22 37 46 50 42 14 18 24
9 9 10 8 7 8 10 8 7 7 7 9 11 9 9 9 8 10 10 9 12 12 10 16 8 7 9 19 25 21 30 11 31 -1 11 22 25 18
Height
3108 3109 3109 3109 3108 3108 3107 3106 3104 3104 3106 3103 3099 3094 3090 3086 3081 3077 3073 3070 3065 3061 3056 3050 3044 3038 3034 3027 3020 3013 3006 3000 2993 2986 2977 2969 2960 2954
3100 3101 3102 3102 3101 3100 3099 3098 3096 3095 3097 3097 3093 3088 3084 3080 3074 3070 3066 3061 3057 3052 3047 3041 3035 3029 3022 3014 3006 2999 2991 2983 2974 2965 2957 2949 2942 2937
3092 3093 3094 3095 3095 3092 3091 3090 3088 3085 3086 3089 3084 3081 3077 3071 3068 3064 3058 3053 3046 3042 3037 3029 3023 3017 3009 3000 2992 2984 2975 2966 2957 2949 2940 2932 2926 2921
3084 3086 3086 3087 3086 3086 3083 3082 3080 3078 3075 3076 3076 3071 3067 3062 3057 3052 3047 3042 3036 3032 3026 3019 3013 3004 2997 2987 2978 2968 2960 2952 2943 2932 2923 2916 2910 2906
3076 3078 3077 3079 3077 3077 3077 3075 3073 3071 3067 3065 3064 3061 3057 3051 3046 3041 3037 3031 3025 3020 3014 3007 3000 2992 2982 2971 2961 2951 2944 2935 2926 2915 2907 2901 2896 2892
3068 3070 3069 3070 3069 3069 3069 3066 3064 3063 3060 3057 3055 3051 3046 3042 3035 3029 3027 3021 3015 3009 3002 2994 2987 2977 2966 2956 2947 2935 2928 2919 2910 2901 2895 2888 2882 2878
3059 3060 3060 3061 3061 3060 3060 3058 3056 3054 3052 3049 3047 3043 3038 3033 3026 3021 3014 3008 3002 2997 2989 2982 2972 2961 2952 2941 2933 2921 2912 2904 2896 2888 2881 2875 2869 2864
3050 3051 3051 3053 3052 3051 3050 3049 3047 3045 3043 3041 3038 3033 3029 3022 3016 3009 3003 2996 2988 2986 2975 2966 2958 2948 2939 2928 2918 2907 2900 2891 2882 2873 2866 2861 2855 2851
3040 3042 3043 3045 3044 3042 3041 3040 3038 3036 3034 3031 3028 3024 3018 3013 3007 2999 2994 2986 2979 2969 2963 2954 2946 2936 2926 2915 2905 2894 2886 2876 2868 2859 2852 2846 2840 2835
3030 3033 3035 3036 3035 3034 3033 3031 3030 3027 3025 3023 3018 3014 3008 3002 2996 2989 2983 2975 2968 2959 2953 2939 2933 2924 2914 2901 2889 2881 2872 2863 2855 2845 2836 2831 2824 2816
3022 3024 3025 3026 3027 3027 3025 3023 3021 3018 3017 3014 3009 3005 3000 2995 2988 2980 2975 2966 2958 2947 2942 2924 2917 2905 2897 2884 2873 2868 2859 2851 2842 2833 2823 2816 2807 2798
3012 3014 3015 3017 3017 3017 3015 3013 3012 3011 3009 3006 3002 2998 2993 2987 2981 2973 2965 2956 2947 2936 2928 2913 2901 2884 2871 2868 2856 2852 2844 2838 2828 2819 2809 2798 2790 2782
3001 3005 3007 3008 3008 3007 3006 3004 3003 3002 3000 2996 2994 2990 2985 2979 2973 2965 2957 2946 2935 2925 2916 2901 2888 2878 2862 2839 2839 2838 2830 2821 2808 2798 2789 2783 2777 2771
2993 2995 2997 2999 2999 2998 2998 2996 2994 2992 2990 2988 2984 2979 2973 2967 2961 2953 2945 2936 2926 2915 2905 2893 2879 2866 2850 2836 2822 2821 2818 2810 2792 2781 2773 2767 2764 2760
2984 2985 2988 2989 2990 2990 2989 2987 2986 2984 2981 2977 2973 2968 2963 2957 2950 2943 2935 2925 2916 2906 2893 2882 2869 2855 2842 2826 2812 2806 2795 2791 2782 2770 2762 2757 2751 2746
2974 2977 2979 2981 2982 2981 2980 2979 2978 2974 2971 2967 2963 2959 2953 2947 2941 2931 2922 2914 2905 2895 2886 2874 2860 2847 2832 2820 2810 2797 2790 2770 2763 2756 2745 2739 2736 2731
2966 2969 2971 2972 2973 2973 2972 2971 2968 2965 2962 2959 2955 2950 2943 2937 2931 2923 2914 2904 2893 2882 2874 2863 2849 2836 2827 2817 2800 2790 2772 2761 2752 2741 2733 2723 2720 2714
2959 2961 2962 2963 2964 2964 2964 2962 2958 2956 2953 2950 2947 2941 2934 2927 2921 2914 2905 2894 2883 2873 2860 2848 2834 2822 2817 2815 2803 2774 2762 2749 2738 2730 2722 2707 2701 2703
2950 2951 2953 2955 2956 2956 2955 2953 2951 2949 2947 2943 2938 2932 2926 2920 2913 2905 2895 2885 2875 2862 2850 2839 2829 2816 2797 2779 2780 2783 2750 2738 2723 2715 2707 2698 2688 2688
2941 2943 2945 2947 2948 2948 2947 2945 2944 2943 2940 2934 2929 2925 2918 2911 2905 2897 2887 2876 2864 2853 2842 2837 2828 2815 2798 2778 2756 2751 2749 2729 2716 2701 2693 2688 2682 2682
2933 2935 2937 2939 2939 2939 2938 2938 2936 2934 2930 2926 2921 2916 2911 2904 2897 2889 2880 2870 2858 2847 2836 2830 2823 2812 2795 2776 2759 2747 2737 2729 2713 2694 2686 2681 2683 2684
2926 2928 2930 2931 2932 2932 2932 2932 2929 2924 2921 2917 2913 2909 2904 2896 2888 2881 2871 2862 2851 2842 2833 2826 2817 2803 2788 2774 2758 2743 2729 2720 2710 2701 2694 2693 2693 2693
2919 2921 2923 2924 2924 2925 2925 2924 2921 2917 2914 2911 2906 2902 2896 2888 2881 2873 2865 2856 2846 2837 2829 2819 2810 2799 2786 2773 2759 2744 2733 2726 2718 2713 2710 2707 2704 2703